Weather History for Fairmont, MN

Change the Weather History Date:

Thursday, January 9, 2014

  Actual Average Record
Temperature  
Mean Temperature 12 °F -  
Max Temperature 24 °F 18 °F 51 °F (2002)
Min Temperature 1 °F 1 °F -27 °F (1982)
Degree Days  
Heating Degree Days 52    
Moisture  
Dew Point 0 °F    
Average Humidity 61    
Maximum Humidity 100    
Minimum Humidity 18    
Precipitation  
Precipitation 0.00 in - - ()
Sea Level Pressure  
Sea Level Pressure 30.10 in    
Wind  
Wind Speed 16 mph (SSE)    
Max Wind Speed 24 mph    
Max Gust Speed 29 mph    
Visibility 10 miles    
Events      
Averages and records for this station are not official NWS values.
T = Trace of Precipitation, MM = Missing Value Source: NWS Daily Summary

Daily Weather History Graph

Daily Weather History Graph

Search for Another Location

Airport:

Trip Planner

Search our weather history database for the weather conditions in past years. The results will help you decide how hot, cold, wet, or windy it might be!

Date:

Astronomy

Jan. 09, 2014 Rise Set
Actual Time 7:50 AM CST 4:59 PM CST
Civil Twilight 7:18 AM CST 5:31 PM CST
Nautical Twilight 6:42 AM CST 6:07 PM CST
Astronomical Twilight 6:07 AM CST 6:42 PM CST
Moon 12:31 PM CST (1/9) 1:54 AM CST (1/9)
Length of Visible Light 10h 13m
Length of Day
9h 09m
Waxing Gibbous, 66% of the Moon is Illuminated
Jan 9
Waxing Gibbous
Jan 15
Full
Jan 23
Last Quarter
Jan 30
New
Feb 6
First Quarter

Hourly Weather History & Observations

Time (CST) Temp. Windchill Dew Point Humidity Pressure Visibility Wind Dir Wind Speed Gust Speed Precip Events Conditions
12:15 AM 1.4 °F -13.5 °F -7.6 °F 66% 30.35 in 10.0 mi SSE 9.2 mph - N/A   Overcast
12:35 AM 1.4 °F -14.5 °F -7.6 °F 66% 30.36 in 10.0 mi SSE 10.4 mph - N/A   Overcast
12:55 AM 1.4 °F -12.5 °F -7.6 °F 66% 30.35 in 10.0 mi South 8.1 mph - N/A   Overcast
1:15 AM 3.2 °F -13.1 °F -5.8 °F 66% 30.35 in 10.0 mi South 11.5 mph - N/A   Overcast
1:35 AM 3.2 °F -13.9 °F -5.8 °F 66% 30.34 in 10.0 mi SSE 12.7 mph - N/A   Overcast
1:55 AM 3.2 °F -13.9 °F -4.0 °F 72% 30.33 in 10.0 mi SSE 12.7 mph - N/A   Overcast
2:15 AM 3.2 °F -13.9 °F -2.2 °F 78% 30.32 in 10.0 mi SSE 12.7 mph - N/A   Overcast
2:35 AM 3.2 °F -14.6 °F -2.2 °F 78% 30.32 in 10.0 mi South 13.8 mph - N/A   Overcast
2:55 AM 5.0 °F -11.6 °F -2.2 °F 72% 30.31 in 10.0 mi South 12.7 mph - N/A   Overcast
3:15 AM 5.0 °F -12.3 °F -2.2 °F 72% 30.30 in 10.0 mi SSE 13.8 mph - N/A   Overcast
3:35 AM 6.8 °F -11.3 °F -2.2 °F 67% 30.29 in 10.0 mi South 16.1 mph - N/A   Overcast
3:55 AM 6.8 °F -11.8 °F -0.4 °F 72% 30.28 in 10.0 mi South 17.3 mph - N/A   Overcast
4:15 AM 6.8 °F -11.3 °F -29.2 °F 18% 30.28 in 10.0 mi South 16.1 mph - N/A   Overcast
4:35 AM 6.8 °F -9.3 °F -25.6 °F 21% 30.28 in 10.0 mi South 12.7 mph - N/A   Overcast
4:55 AM 8.6 °F -8.9 °F -23.8 °F 22% 30.26 in 10.0 mi South 16.1 mph - N/A   Overcast
5:15 AM 8.6 °F -9.5 °F -20.2 °F 26% 30.25 in 10.0 mi South 17.3 mph - N/A   Overcast
5:35 AM 8.6 °F -8.3 °F -18.4 °F 28% 30.24 in 10.0 mi South 15.0 mph - N/A   Overcast
5:55 AM 8.6 °F -8.9 °F -16.6 °F 31% 30.23 in 10.0 mi South 16.1 mph - N/A   Overcast
6:15 AM 8.6 °F -8.9 °F -16.6 °F 31% 30.23 in 10.0 mi South 16.1 mph - N/A   Overcast
6:35 AM 8.6 °F -10.5 °F -14.8 °F 34% 30.22 in 10.0 mi South 19.6 mph - N/A   Overcast
6:55 AM 8.6 °F -8.9 °F -14.8 °F 34% 30.21 in 10.0 mi South 16.1 mph - N/A   Overcast
7:15 AM 8.6 °F -10.0 °F -14.8 °F 34% 30.20 in 10.0 mi South 18.4 mph - N/A   Mostly Cloudy
7:35 AM 6.8 °F -12.9 °F -14.8 °F 37% 30.20 in 10.0 mi South 19.6 mph 26.5 mph N/A   Partly Cloudy
7:55 AM 5.0 °F -13.6 °F -13.0 °F 43% 30.20 in 10.0 mi South 16.1 mph - N/A   Clear
8:15 AM 5.0 °F -14.2 °F -11.2 °F 47% 30.20 in 10.0 mi South 17.3 mph 21.9 mph N/A   Clear
8:35 AM 5.0 °F -14.2 °F -11.2 °F 47% 30.18 in 10.0 mi South 17.3 mph - N/A   Clear
8:55 AM 5.0 °F -13.6 °F -9.4 °F 52% 30.19 in 10.0 mi South 16.1 mph 21.9 mph N/A   Clear
9:15 AM 6.8 °F -13.8 °F -7.6 °F 52% 30.18 in 10.0 mi South 21.9 mph - N/A   Mostly Cloudy
9:35 AM 6.8 °F -12.4 °F -5.8 °F 56% 30.18 in 10.0 mi SSE 18.4 mph - N/A   Overcast
9:55 AM 8.6 °F -11.4 °F -2.2 °F 62% 30.16 in 10.0 mi South 21.9 mph - N/A   Overcast
10:15 AM 8.6 °F -11.4 °F -0.4 °F 67% 30.16 in 10.0 mi SSE 21.9 mph - N/A   Overcast
10:35 AM 10.4 °F -8.2 °F - N/A% 30.14 in 6.0 mi South 19.6 mph - N/A   Overcast
10:55 AM 10.4 °F -8.6 °F -25.6 °F 18% 30.13 in 10.0 mi SSE 20.7 mph - N/A   Overcast
11:15 AM 12.2 °F -5.8 °F -20.2 °F 22% 30.12 in 10.0 mi South 19.6 mph 25.3 mph N/A   Mostly Cloudy
11:35 AM 14.0 °F -3.4 °F -16.6 °F 25% 30.11 in 10.0 mi South 19.6 mph - N/A   Clear
11:55 AM 15.8 °F -1.1 °F -13.0 °F 27% 30.09 in 10.0 mi South 19.6 mph 26.5 mph N/A   Clear
12:15 PM 17.6 °F 0.1 °F -9.4 °F 30% 30.08 in 10.0 mi South 23.0 mph - N/A   Clear
12:35 PM 17.6 °F 0.5 °F -4.0 °F 38% 30.07 in 10.0 mi South 21.9 mph - N/A   Clear
12:55 PM 19.4 °F 2.1 °F 6.8 °F 58% 30.05 in 10.0 mi South 24.2 mph - N/A   Clear
1:15 PM 21.2 °F 5.2 °F -14.8 °F 20% 30.04 in 10.0 mi South 21.9 mph 26.5 mph N/A   Clear
1:35 PM 21.2 °F 5.2 °F -11.2 °F 24% 30.03 in 10.0 mi South 21.9 mph 28.8 mph N/A   Clear
1:55 PM 23.0 °F 8.0 °F 3.2 °F 43% 30.01 in 10.0 mi South 20.7 mph 28.8 mph N/A   Clear
2:35 PM 24.8 °F 10.3 °F 19.4 °F 80% 30.00 in 10.0 mi South 20.7 mph 27.6 mph N/A   Clear
2:55 PM 24.8 °F 10.7 °F 12.2 °F 59% 29.99 in 10.0 mi South 19.6 mph 26.5 mph N/A   Clear
3:15 PM 24.8 °F 10.7 °F 15.8 °F 69% 29.99 in 10.0 mi South 19.6 mph - N/A   Clear
3:35 PM 24.8 °F 10.0 °F 15.8 °F 69% 29.98 in 10.0 mi SSE 21.9 mph - N/A   Clear
3:55 PM 24.8 °F 10.3 °F 15.8 °F 69% 29.97 in 10.0 mi South 20.7 mph - N/A   Clear
4:15 PM 24.8 °F 10.0 °F 15.8 °F 69% 29.96 in 10.0 mi SSE 21.9 mph - N/A   Clear
5:15 PM 21.2 °F 6.4 °F 15.8 °F 80% 29.96 in 10.0 mi SSE 18.4 mph - N/A   Clear
5:35 PM 19.4 °F 4.1 °F 15.8 °F 86% 29.96 in 10.0 mi SSE 18.4 mph - N/A   Clear
5:55 PM 19.4 °F 3.6 °F 15.8 °F 86% 29.96 in 10.0 mi South 19.6 mph 23.0 mph N/A   Clear
6:15 PM 19.4 °F 3.2 °F 15.8 °F 86% 29.95 in 10.0 mi SSE 20.7 mph - N/A   Clear
6:35 PM 19.4 °F 3.2 °F 15.8 °F 86% 29.95 in 10.0 mi South 20.7 mph - N/A   Clear
6:55 PM 17.6 °F 0.1 °F 15.8 °F 93% 29.94 in 10.0 mi South 23.0 mph 26.5 mph N/A   Clear
7:15 PM 17.6 °F 0.5 °F 14.0 °F 86% 29.94 in 10.0 mi South 21.9 mph 26.5 mph N/A   Clear
7:35 PM 17.6 °F 1.3 °F 14.0 °F 86% 29.94 in 9.0 mi South 19.6 mph - N/A   Clear
7:55 PM 17.6 °F 2.2 °F 12.2 °F 79% 29.94 in 8.0 mi SSE 17.3 mph - N/A   Clear
8:15 PM 15.8 °F 0.9 °F 14.0 °F 93% 29.94 in 7.0 mi SSE 15.0 mph - N/A   Clear
8:35 PM 15.8 °F -0.2 °F 12.2 °F 86% 29.94 in 7.0 mi South 17.3 mph - N/A   Clear
8:55 PM 15.8 °F -1.1 °F 12.2 °F 86% 29.93 in 8.0 mi South 19.6 mph - N/A   Clear
9:15 PM 15.8 °F -1.1 °F 12.2 °F 86% 29.92 in 9.0 mi South 19.6 mph 25.3 mph N/A   Clear
9:35 PM 15.8 °F -0.6 °F 12.2 °F 86% 29.91 in 10.0 mi South 18.4 mph - N/A   Clear
9:55 PM 15.8 °F -0.6 °F 12.2 °F 86% 29.90 in 10.0 mi South 18.4 mph - N/A   Clear
10:15 PM 15.8 °F 0.3 °F 12.2 °F 86% 29.90 in 10.0 mi South 16.1 mph - N/A   Clear
10:35 PM 15.8 °F -1.1 °F 12.2 °F 86% 29.89 in 10.0 mi South 19.6 mph - N/A   Mostly Cloudy
10:55 PM 17.6 °F 1.3 °F 14.0 °F 86% 29.88 in 8.0 mi South 19.6 mph - N/A   Overcast
11:15 PM 17.6 °F 1.7 °F 15.8 °F 93% 29.88 in 6.0 mi South 18.4 mph - N/A   Overcast
11:35 PM 17.6 °F 1.3 °F 15.8 °F 93% 29.87 in 5.0 mi South 19.6 mph 23.0 mph N/A   Overcast
11:55 PM 17.6 °F 0.5 °F 17.6 °F 100% 29.87 in 3.0 mi South 21.9 mph 26.5 mph N/A   Overcast